Location: Unspecified
(43.3830°N, 0.0000°E)
Time: 23:40:35
(UTC+00:00)

Explorer 11/Cluster Stage 4 - Pass Details

Date: 17 June 2019
Orbit: 467 x 1260 km, 28.8° (Epoch: 18 July)

Event Time Altitude Azimuth Distance (km) Brightness Sun altitude
Rises 21:06:54 0° 250° (WSW) 3,638 10.3 -12.2°
Reaches altitude 10° 21:11:30 10° 221° (SW) 2,880 9.4 -12.7°
Maximum altitude 21:13:58 12° 200° (SSW) 2,819 9.1 -13.0°
Drops below altitude 10° 21:16:33 10° 180° (S) 3,045 9.1 -13.3°
Enters shadow 21:16:56 10° 178° (S) 3,099 9.1 -13.3°
